Regional Weather Roundup
Issued by NWS

Home | Current Version | Previous Version | Graphics & Text | Print | Product List | Glossary On
Versions: 1 2 3 4 5 6 7 8 9 10 11 12 13 14 15 16 17 18 19 20 21 22 23 24 25 26 27 28 29 30 31 32 33 34 35 36 37 38 39 40 41 42 43 44 45 46 47 48 49 50
000
ASUS43 KDTX 060710
RWRMI
MICHIGAN HOURLY REGIONAL WEATHER ROUNDUP
NATIONAL WEATHER SERVICE DETROIT/PONTIAC MI
300 AM EDT THU MAY 06 2021

NOTE: "FAIR" INDICATES FEW OR NO CLOUDS BELOW 12,000 FEET WITH NO
SIGNIFICANT WEATHER AND/OR OBSTRUCTION TO VISIBILITY.

MIZ047>049-052>055-059>063-066>070-074>076-081>083-060800-
SOUTHEAST LOWER MICHIGAN

CITY           SKY/WX    TMP DP  RH WIND       PRES   REMARKS
ADRIAN         CLEAR     42  33  70 N5        30.14F
ALMA           CLOUDY    36  32  88 CALM      30.14F
ANN ARBOR      PTCLDY    34  31  88 CALM      30.13S
BAD AXE        CLEAR     31  31 100 CALM      30.11S FOG
CARO           CLEAR     32  29  88 CALM      30.13S
DETROIT CITY   CLEAR     42  37  82 CALM      30.13S
DETROIT        PTCLDY    42  38  85 CALM      30.14S
FLINT          CLEAR     32  28  85 CALM      30.13F
GROSSE ILE     CLEAR     40  37  92 CALM      30.13S
HILLSDALE      CLEAR     37  33  86 CALM      30.13F
HOWELL         MOCLDY    35  30  84 CALM      30.13F

CITY           SKY/WX    TMP DP  RH WIND       PRES   REMARKS
JACKSON        PTCLDY    37  33  85 CALM      30.14S
LAMBERTVILLE   CLEAR     42  35  78 CALM      30.13F
LANSING        MOCLDY    39  35  86 CALM      30.14S
LAPEER         CLEAR     33  33 100 CALM      30.14S
MASON          PTCLDY    37  33  83 CALM      30.14S
MONROE         CLEAR     39  37  93 N5        30.13S
MT. CLEMENS    CLEAR     35  35 100 CALM      30.12S
PONTIAC        MOCLDY    38  32  79 CALM      30.12S
PORT HOPE        N/A     38  32  79 NW6       30.10S WCI  33
PORT HURON     CLEAR     32  28  86 CALM      30.13S FOG
TRI CITIES     PTCLDY    42  29  59 NW6       30.14S
MIDLAND        PTCLDY    33  31  93 CALM      30.14S
TROY           CLEAR     40  38  95 CALM      30.15S
SAGINAW HB     PTCLDY    40  30  68 NW3       30.13F
$$
MIZ043>046-050>051-056>058-064>065-071>073-077>080-060800-
SOUTHWEST LOWER MICHIGAN

CITY           SKY/WX    TMP DP  RH WIND       PRES   REMARKS
BATTLE CREEK   CLOUDY    42  34  73 CALM      30.13F
BENTON HARBOR  MOCLDY    40  35  83 CALM      30.13F
BIG RAPIDS     CLOUDY    38  36  91 CALM      30.13F
COLDWATER      PTCLDY    37  33  86 CALM      30.13F
FREMONT        FAIR      38  33  80 CALM      30.14F
HOLLAND        CLOUDY    45  37  73 CALM      30.14F
GRAND RAPIDS   CLOUDY    44  34  67 SW3       30.14S
IONIA          CLOUDY    41  35  78 CALM      30.12F
KALAMAZOO      MOCLDY    42  32  67 CALM      30.13F
LUDINGTON      CLOUDY    39  37  94 CALM      30.13F
MARSHALL       MOCLDY    38  34  85 CALM      30.14S
MOUNT PLEASANT MOCLDY    39  34  81 CALM      30.14S
MUSKEGON       MOCLDY    43  35  73 CALM      30.14F
SOUTH HAVEN    CLOUDY    38  35  88 CALM      30.14F
$$
MIZ016>042-060800-
NORTHERN LOWER MICHIGAN

CITY           SKY/WX    TMP DP  RH WIND       PRES   REMARKS
ALPENA         PTCLDY    35  32  88 NW5       30.11F WCI  31
BEAVER ISLAND  PTCLDY    29  29 100 CALM      30.13F FOG
BELLAIRE       PTCLDY    32  31  96 CALM      30.14F
CADILLAC       CLOUDY    38  34  87 CALM      30.11F
CHARLEVOIX     PTCLDY    33  32  96 CALM      30.14S
FRANKFORT      CLOUDY    37  35  90 CALM      30.13F
GAYLORD        PTCLDY    33  26  75 CALM      30.11F
GRAYLING       PTCLDY    31  29  94 CALM      30.11F
HARBOR SPRINGS PTCLDY    30  29  97 CALM      30.14S
HOUGHTON LAKE  MOCLDY    36  31  82 CALM      30.13S
MANISTEE       CLOUDY    38  38 100 CALM      30.13F
OSCODA         PTCLDY    31  26  83 W6        30.11F WCI  25
PELLSTON       PTCLDY    28  25  88 N3        30.13F
ROGERS CITY    PTCLDY    32  31  95 W5        30.12F WCI  28
TRAVERSE CITY  CLOUDY    38  34  85 CALM      30.12F
$$
MIZ007>008-015-060800-
EASTERN UPPER MICHIGAN

CITY           SKY/WX    TMP DP  RH WIND       PRES   REMARKS
KINROSS        CLEAR     30  29  96 W6        30.11S WCI  24
MACKINAC ISLAN CLEAR     36  30  79 W6        30.12S WCI  31
NEWBERRY       CLEAR     30  28  94 SW5       30.12S WCI  25
S. S. MARIE    CLEAR     37  30  75 W8        30.09F WCI  31
MUNISING         N/A     30  28  92 S7        30.11F WCI  23
$$
MIZ004>006-011>014-085-060800-
CENTRAL UPPER MICHIGAN

CITY           SKY/WX    TMP DP  RH WIND       PRES   REMARKS
MANISTIQUE     PTCLDY    28  26  93 CALM      30.12F
ESCANABA       CLOUDY    34  33  96 CALM      30.12F
MENOMINEE      CLOUDY    43  34  70 SE5       30.13F
$$
MIZ001>003-009>011-084-060800-
WESTERN UPPER MICHIGAN

CITY           SKY/WX    TMP DP  RH WIND       PRES   REMARKS
IRON MOUNTAIN  PTCLDY    36  29  75 CALM      30.09F
HOUGHTON       MOCLDY    33  26  75 NW7       30.10S WCI  27
COPPER HARBOR    N/A     39  31  72 NW6       30.10F WCI  35
IRONWOOD       MOCLDY    29  27  92 CALM      30.13S
$$

ABBREVIATIONS USED IN REMARKS
   TC - TEMPERATURE IN CELSIUS
  WCI - WIND CHILL INDEX
   HX - HEAT INDEX
  VSB - VISIBILITY




USA.gov is the U.S. government's official web portal to all federal, state and local government web resources and services.